STARLINK-4205, 53174

Orbit data source: Space-Track

STARLINK-4205, 53174 is a payload satellite owned by SpaceX/Seattle (US) in LEO that was launched on Sun, 17 Jul 2022 UTC via an FALCON 9 launch vehicle from the Air Force Eastern Test Range (AFETR). Payload-class satellites include a variety of spacecraft equipped with specific instruments for various scientific and technological missions. These include communications satellites like Starlink; space stations such as the ISS; scientific satellites like the Hubble; Earth observation satellites from companies like Planet Labs, Umbra, and HawkEye 360; GPS; miniature CubeSats for education and research; and military/defense satellites.

Loading next visibility...
Identifier
53174, 2022-083AU
Orbit
LEO
Country
Flag of USUS
Related business
Manufacturer
SpaceX/Seattle
Mission
Operational Commercial Communications
Bus & Motor
STARLINK, Unknown motor
Mass
297 kg wet, ~275 kg dry
Launch date (UTC)
2022-07-17 (4 years ago)
Launch vehicle
FALCON 9
Launch site
Air Force Eastern Test Range (AFETR)
Object type
Payload
Rocket body
Debris
Shape & HBR
Box + 1 Pan, 10.1 m
Radar Cross Section
13.562 m², Large (>1 m²)

Expand to show TLE details & history
Last TLE update: 2 days ago

TLE from 2 days ago
0 STARLINK-4205
1 53174U 22083AU  26171.41668980  .00050194  00000-0  21522-2 0  9997
2 53174  53.1597  72.3931 0002388  81.9080  73.0945 15.22278813  5826
Epoch: 2026-06-20T10:00Z
TLE epoch observation values (Epoch: 2026-06-20T10:00:01.998Z)
Latitude
19.78777°
Longitude
178.20435°
Altitude
498.942 km
Speed
7.618 km/s
True Right ascension
15h 47m 22s
True Declination
19° 40' 28"
Sunlit
Object was in full shadow at epoch
Visualization orbit readout
Latitude
Unknown
Longitude
Unknown
Altitude
Unknown
Speed
Unknown
Apparent Right ascension
Unknown
Apparent Declination
Unknown
Sunlit
N/A
Visualization observer readout
Local Sidereal Time
23:08:39
Azimuth
Unknown
Elevation
Unknown
Doppler factor
Unknown
Orbital elements
Apogee altitude
500.867 km
Perigee altitude
497.582 km
Semi-major axis
6,877.361 km
Eccentricity
0.00024
Inclination
53.1597°
RAAN
72.3931°
Arg. of periapsis
81.908°
True anomaly
73.12068°
Mean anomaly
73.0945°
Eccentric anomaly
73.10759°
Mean motion
3.80549 °/min
Orbital period
94.6 mins
BSTAR
0.0021522
Loading maneuver chart data...
Computing Atmospheric mass density...

Documentation

Showing up to 5 results
|